Location: Burgwalden
(48.2830°N, 10.7576°E)
Time: 01:22:23
(UTC+00:00)

Cosmos 2084 Rocket - Pass Details

Date: 26 September 2023
Orbit: 500 x 655 km, 62.8° (Epoch: 30 November)

Event Time Altitude Azimuth Distance (km) Brightness Sun altitude
Exits shadow 04:07:34 10° 223° (SW) 1,844 5.5 -10.9°
Reaches altitude 10° 04:07:37 10° 223° (SW) 1,828 5.5 -10.9°
Maximum altitude 04:11:43 85° 312° (NW) 543 3.2 -10.2°
Drops below altitude 10° 04:15:40 10° 41° (NE) 1,760 6.7 -9.6°
Sets 04:17:48 0° 42° (NE) 2,634 7.7 -9.2°
